This is the latest recevied weather packets stored in our database for station/object SQ7RAF-15. If no packets are shown the sender has not sent any weather packets the latest 1 day(s).
| Time | Temp. | Humidity | Pressure | Rain* | Wind** | Luminosity | Snow |
|---|---|---|---|---|---|---|---|
| 1777964137 | 21.11° C | 45% | 1009.6 hPa | 0 mm | 0.45 m/s, 206° | 346 W/m² | - |
| 1777963816 | 20.56° C | 45% | 1009.6 hPa | 0 mm | 1.34 m/s, 161° | 334 W/m² | - |
| 1777963545 | 20.56° C | 46% | 1009.7 hPa | 0 mm | 0.89 m/s, 210° | 316 W/m² | - |
| 1777963225 | 20.56° C | 46% | 1009.8 hPa | 0 mm | 0.89 m/s, 241° | 285 W/m² | - |
| 1777962921 | 20.56° C | 46% | 1009.8 hPa | 0 mm | 0.89 m/s, 339° | 294 W/m² | - |
| 1777962633 | 20° C | 46% | 1009.8 hPa | 0 mm | 0.45 m/s, 330° | 296 W/m² | - |
| 1777962345 | 20° C | 46% | 1009.8 hPa | 0 mm | 0.45 m/s, 232° | 279 W/m² | - |
| 1777962025 | 19.44° C | 47% | 1009.8 hPa | 0 mm | 0.89 m/s, 225° | 249 W/m² | - |
| 1777961737 | 19.44° C | 48% | 1009.7 hPa | 0 mm | 0.45 m/s, 286° | 231 W/m² | - |
| 1777961417 | 18.89° C | 48% | 1009.9 hPa | 0 mm | 0.45 m/s, 236° | 221 W/m² | - |
| 1777961128 | 18.89° C | 50% | 1009.9 hPa | 0 mm | 0.89 m/s, 143° | 198 W/m² | - |
| 1777960841 | 18.33° C | 53% | 1009.9 hPa | 0 mm | 0.89 m/s, 266° | 200 W/m² | - |
| 1777960520 | 18.33° C | 53% | 1010 hPa | 0 mm | 0.45 m/s, 247° | 214 W/m² | - |
| 1777960233 | 17.78° C | 53% | 1010 hPa | 0 mm | 0.89 m/s, 213° | 180 W/m² | - |
| 1777959929 | 18.33° C | 54% | 1009.8 hPa | 0 mm | 0.45 m/s, 285° | 151 W/m² | - |
| 1777959641 | 17.78° C | 55% | 1009.9 hPa | 0 mm | 0.45 m/s, 294° | 165 W/m² | - |
| 1777959321 | 17.78° C | 57% | 1010 hPa | 0 mm | 0.45 m/s, 301° | 153 W/m² | - |
| 1777959033 | 17.22° C | 61% | 1010 hPa | 0 mm | 0.45 m/s, 1° | 142 W/m² | - |
| 1777958746 | 16.67° C | 64% | 1010.1 hPa | 0 mm | 0.45 m/s, 294° | 128 W/m² | - |
| 1777958425 | 16.11° C | 68% | 1010.1 hPa | 0 mm | 0 m/s | 103 W/m² | - |
| 1777958138 | 16.11° C | 71% | 1010 hPa | 0 mm | 0.45 m/s, 360° | 122 W/m² | - |
| 1777957817 | 15.56° C | 76% | 1010 hPa | 0 mm | 0.45 m/s, 354° | 125 W/m² | - |
| 1777957530 | 15° C | 78% | 1010 hPa | 0 mm | 0 m/s | 110 W/m² | - |
| 1777957241 | 13.89° C | 80% | 1010 hPa | 0 mm | 0 m/s | 84 W/m² | - |
| 1777956922 | 13.89° C | 81% | 1009.9 hPa | 0 mm | 0 m/s | 82 W/m² | - |
* Rain latest hour (hover to see other rain measurements)
** Current wind speed in m/s (hover to see current wind gust speed)